CSN305 ZGGG-NZAA

Flight info

Callsign CSN305
Flight time N/A
Altitude 24600
Route VIBOS9 VIBOS R473 SIERA/N0496F350 DCT MULET/N0494F370 DCT NOMAN A461 AVMUP W16 MIA B462 MIMIK/N0487F390 B462 BIK G459 WP B473 CS Y177 AKROM Z25 ALBUX W112 OVRON/N0478F410 A346 SALAG
Aircraft A359/H-SDE2E3GHIJ3J4J5LM1ORWXY/LB1D1

Departure

Time N/A
Airport Guangzhou Baiyun International Airport (ZGGG)

Arrival

Time 2026-05-06 23:53
Airport Auckland International Airport (NZAA)
Time Latitude Longitude Altitude Speed Heading
2026-05-06 22:43 -32.90775 167.56524 41136 ft 546 kts 124°
2026-05-06 22:43 -32.92717 167.60425 41135 ft 546 kts 124°
2026-05-06 22:44 -32.96577 167.68194 41145 ft 544 kts 124°
2026-05-06 22:44 -33.00423 167.75950 41143 ft 544 kts 124°
2026-05-06 22:45 -33.04263 167.83709 41151 ft 544 kts 124°
2026-05-06 22:45 -33.08099 167.91479 41146 ft 544 kts 124°
2026-05-06 22:46 -33.11930 167.99253 41145 ft 543 kts 123°
2026-05-06 22:46 -33.15741 168.07006 41149 ft 541 kts 123°
2026-05-06 22:47 -33.19542 168.14752 41154 ft 541 kts 123°
2026-05-06 22:47 -33.23336 168.22502 41147 ft 541 kts 123°
2026-05-06 22:48 -33.27129 168.30265 41162 ft 541 kts 123°
2026-05-06 22:48 -33.30913 168.38027 41159 ft 540 kts 123°
2026-05-06 22:49 -33.34690 168.45791 41160 ft 539 kts 123°
2026-05-06 22:49 -33.38454 168.53545 41157 ft 539 kts 123°
2026-05-06 22:50 -33.42208 168.61296 41161 ft 539 kts 123°
2026-05-06 22:50 -33.45948 168.69033 41167 ft 539 kts 123°
2026-05-06 22:51 -33.49667 168.76745 41171 ft 538 kts 123°
2026-05-06 22:51 -33.53400 168.84503 41169 ft 537 kts 123°
2026-05-06 22:52 -33.57128 168.92265 41166 ft 537 kts 123°
2026-05-06 22:52 -33.60848 169.00028 41169 ft 537 kts 123°
2026-05-06 22:53 -33.64567 169.07807 41164 ft 537 kts 123°
2026-05-06 22:53 -33.68279 169.15588 41175 ft 537 kts 123°
2026-05-06 22:54 -33.71985 169.23371 41175 ft 537 kts 122°
2026-05-06 22:54 -33.75687 169.31165 41175 ft 537 kts 122°
2026-05-06 22:55 -33.79388 169.38972 41172 ft 537 kts 122°
2026-05-06 22:55 -33.83078 169.46776 41178 ft 536 kts 122°
2026-05-06 22:56 -33.86759 169.54575 41198 ft 535 kts 122°
2026-05-06 22:56 -33.90426 169.62364 41182 ft 535 kts 122°
2026-05-06 22:57 -33.94091 169.70163 41180 ft 535 kts 122°
2026-05-06 22:57 -33.97749 169.77966 41180 ft 535 kts 122°
2026-05-06 22:58 -34.01377 169.85722 41195 ft 534 kts 122°
2026-05-06 22:58 -34.05016 169.93519 41200 ft 533 kts 122°
2026-05-06 22:59 -34.08644 170.01309 41188 ft 533 kts 122°
2026-05-06 22:59 -34.12270 170.09112 41193 ft 533 kts 122°
2026-05-06 23:00 -34.15888 170.16913 41193 ft 533 kts 122°
2026-05-06 23:00 -34.19499 170.24719 41199 ft 531 kts 122°
2026-05-06 23:01 -34.23094 170.32508 41203 ft 531 kts 122°
2026-05-06 23:01 -34.26685 170.40304 41201 ft 531 kts 122°
2026-05-06 23:02 -34.30274 170.48114 41205 ft 531 kts 121°
2026-05-06 23:02 -34.33849 170.55911 41220 ft 530 kts 121°
2026-05-06 23:03 -34.37415 170.63706 41210 ft 528 kts 121°
2026-05-06 23:03 -34.40939 170.71425 41209 ft 528 kts 121°
2026-05-06 23:04 -34.44486 170.79212 41212 ft 528 kts 121°
2026-05-06 23:04 -34.48023 170.86997 41212 ft 528 kts 121°
2026-05-06 23:05 -34.51559 170.94795 41218 ft 527 kts 121°
2026-05-06 23:05 -34.55082 171.02582 41216 ft 526 kts 121°
2026-05-06 23:06 -34.58596 171.10366 41217 ft 526 kts 121°
2026-05-06 23:06 -34.62103 171.18154 41219 ft 526 kts 121°
2026-05-06 23:07 -34.65609 171.25955 41226 ft 526 kts 121°
2026-05-06 23:07 -34.69104 171.33751 41228 ft 525 kts 121°
2026-05-06 23:08 -34.72587 171.41538 41264 ft 523 kts 121°
2026-05-06 23:08 -34.74317 171.45413 41554 ft 519 kts 121°
2026-05-06 23:08 -34.76028 171.49250 41942 ft 514 kts 121°
2026-05-06 23:08 -34.77729 171.53066 42188 ft 513 kts 120°
2026-05-06 23:09 -34.79430 171.56888 42239 ft 516 kts 120°
2026-05-06 23:09 -34.82864 171.64613 42235 ft 522 kts 120°
2026-05-06 23:10 -34.87101 171.71653 42234 ft 514 kts 137°
2026-05-06 23:10 -34.91228 171.76842 42232 ft 514 kts 137°
2026-05-06 23:11 -34.97041 171.84163 42238 ft 514 kts 137°
2026-05-06 23:11 -35.01164 171.89380 42236 ft 514 kts 137°
2026-05-06 23:12 -35.05630 171.95045 42237 ft 514 kts 137°
2026-05-06 23:12 -35.11394 172.02373 42243 ft 515 kts 136°
2026-05-06 23:13 -35.16348 172.08684 42241 ft 514 kts 136°
2026-05-06 23:13 -35.21288 172.14988 42241 ft 513 kts 136°
2026-05-06 23:14 -35.25423 172.20276 42259 ft 513 kts 136°
2026-05-06 23:14 -35.31164 172.27630 42243 ft 514 kts 136°
2026-05-06 23:15 -35.35300 172.32938 42246 ft 514 kts 136°
2026-05-06 23:15 -35.41036 172.40313 42246 ft 515 kts 136°
2026-05-06 23:16 -35.45169 172.45639 42249 ft 514 kts 136°
2026-05-06 23:16 -35.50083 172.51981 42244 ft 513 kts 136°
2026-05-06 23:17 -35.54973 172.58304 42252 ft 513 kts 136°
2026-05-06 23:17 -35.59872 172.64651 41712 ft 510 kts 136°
2026-05-06 23:17 -35.63140 172.68891 40704 ft 512 kts 136°
2026-05-06 23:18 -35.64767 172.71003 40220 ft 513 kts 136°
2026-05-06 23:18 -35.67225 172.74197 39506 ft 514 kts 136°
2026-05-06 23:18 -35.69687 172.77400 38779 ft 515 kts 136°
2026-05-06 23:18 -35.72982 172.81692 37642 ft 516 kts 136°
2026-05-06 23:19 -35.74615 172.83821 37109 ft 516 kts 136°
2026-05-06 23:19 -35.77878 172.88080 36036 ft 516 kts 135°
2026-05-06 23:19 -35.79549 172.90262 35492 ft 516 kts 135°
2026-05-06 23:19 -35.82809 172.94525 34494 ft 515 kts 135°
2026-05-06 23:20 -35.84471 172.96701 34015 ft 514 kts 135°
2026-05-06 23:20 -35.86914 172.99901 33280 ft 511 kts 135°
2026-05-06 23:20 -35.90115 173.04099 32472 ft 505 kts 134°
2026-05-06 23:20 -35.91736 173.06228 32100 ft 501 kts 134°
2026-05-06 23:21 -35.94078 173.09305 31565 ft 496 kts 134°
2026-05-06 23:21 -35.96432 173.12400 31021 ft 492 kts 134°
2026-05-06 23:21 -35.98673 173.15349 30502 ft 488 kts 134°
2026-05-06 23:21 -36.00986 173.18396 29902 ft 484 kts 134°
2026-05-06 23:22 -36.03272 173.21410 29347 ft 478 kts 134°
2026-05-06 23:22 -36.05536 173.24398 28810 ft 473 kts 134°
2026-05-06 23:22 -36.07769 173.27347 28269 ft 468 kts 134°
2026-05-06 23:22 -36.09982 173.30274 27726 ft 464 kts 134°
2026-05-06 23:23 -36.12177 173.33178 27189 ft 460 kts 134°
2026-05-06 23:23 -36.14350 173.36057 26649 ft 456 kts 134°
2026-05-06 23:23 -36.16506 173.38914 26102 ft 452 kts 134°
2026-05-06 23:23 -36.18642 173.41747 25555 ft 449 kts 134°
2026-05-06 23:24 -36.20765 173.44567 25004 ft 446 kts 134°
2026-05-06 23:24 -36.22874 173.47370 24462 ft 444 kts 134°
2026-05-06 23:24 -36.24976 173.50166 23910 ft 442 kts 134°
2026-05-06 23:24 -36.27063 173.52943 23277 ft 439 kts 134°
2026-05-06 23:25 -36.29130 173.55699 22705 ft 434 kts 134°
2026-05-06 23:25 -36.31173 173.58422 22150 ft 430 kts 134°
2026-05-06 23:25 -36.33194 173.61119 21599 ft 425 kts 134°
2026-05-06 23:25 -36.35202 173.63802 21051 ft 421 kts 134°
2026-05-06 23:26 -36.37188 173.66456 20500 ft 418 kts 134°
2026-05-06 23:26 -36.39133 173.69059 19956 ft 415 kts 133°
2026-05-06 23:26 -36.41108 173.71654 19407 ft 411 kts 136°
2026-05-06 23:26 -36.43152 173.74121 18865 ft 409 kts 137°
2026-05-06 23:27 -36.45198 173.76556 18281 ft 406 kts 137°
2026-05-06 23:27 -36.47222 173.78983 17709 ft 402 kts 136°
2026-05-06 23:27 -36.49217 173.81390 17163 ft 398 kts 136°
2026-05-06 23:27 -36.51191 173.83781 16628 ft 394 kts 136°
2026-05-06 23:28 -36.53143 173.86152 16084 ft 390 kts 136°
2026-05-06 23:28 -36.55073 173.88500 15570 ft 387 kts 136°
2026-05-06 23:28 -36.56987 173.90832 15012 ft 384 kts 136°
2026-05-06 23:28 -36.58900 173.93166 14358 ft 385 kts 135°
2026-05-06 23:29 -36.60788 173.95471 14016 ft 377 kts 135°
2026-05-06 23:29 -36.62643 173.97741 13485 ft 372 kts 135°
2026-05-06 23:29 -36.64484 173.99992 12945 ft 369 kts 135°
2026-05-06 23:29 -36.66274 174.02181 12303 ft 353 kts 135°
2026-05-06 23:30 -36.68008 174.04302 11729 ft 348 kts 135°
2026-05-06 23:30 -36.69727 174.06409 11234 ft 345 kts 134°
2026-05-06 23:30 -36.71431 174.08499 10754 ft 342 kts 134°
2026-05-06 23:30 -36.73122 174.10574 10292 ft 339 kts 134°
2026-05-06 23:31 -36.74768 174.12594 10142 ft 325 kts 134°
2026-05-06 23:31 -36.76350 174.14536 10002 ft 312 kts 134°
2026-05-06 23:31 -36.77876 174.16413 9767 ft 309 kts 134°
2026-05-06 23:31 -36.79406 174.18296 9390 ft 308 kts 134°
2026-05-06 23:32 -36.80927 174.20171 9020 ft 306 kts 134°
2026-05-06 23:32 -36.82423 174.22013 8806 ft 296 kts 134°
2026-05-06 23:32 -36.83879 174.23807 8505 ft 291 kts 134°
2026-05-06 23:32 -36.85310 174.25575 8164 ft 289 kts 133°
2026-05-06 23:33 -36.86717 174.27312 7834 ft 287 kts 133°
2026-05-06 23:33 -36.88135 174.29061 7486 ft 285 kts 133°
2026-05-06 23:33 -36.89540 174.30795 7156 ft 283 kts 133°
2026-05-06 23:33 -36.90944 174.32531 6842 ft 284 kts 133°
2026-05-06 23:34 -36.92344 174.34262 6486 ft 283 kts 132°
2026-05-06 23:34 -36.93743 174.35993 6160 ft 282 kts 133°
2026-05-06 23:34 -36.95130 174.37709 5836 ft 279 kts 133°
2026-05-06 23:34 -36.96504 174.39409 5507 ft 276 kts 133°
2026-05-06 23:35 -36.97865 174.41096 5181 ft 276 kts 132°
2026-05-06 23:35 -36.99224 174.42781 4857 ft 275 kts 132°
2026-05-06 23:35 -37.00582 174.44466 4531 ft 273 kts 131°
2026-05-06 23:35 -37.01922 174.46129 4213 ft 271 kts 132°
2026-05-06 23:36 -37.03252 174.47785 3899 ft 268 kts 131°
2026-05-06 23:36 -37.04558 174.49404 3749 ft 259 kts 131°
2026-05-06 23:36 -37.05815 174.50961 3630 ft 249 kts 131°
2026-05-06 23:36 -37.06963 174.52503 3496 ft 233 kts 119°
2026-05-06 23:37 -37.07422 174.54272 3462 ft 207 kts 89°
2026-05-06 23:37 -37.07423 174.55931 3386 ft 187 kts 73°
2026-05-06 23:37 -37.07054 174.57400 3304 ft 183 kts 63°
2026-05-06 23:37 -37.06632 174.58844 3061 ft 182 kts 65°
2026-05-06 23:38 -37.06241 174.60319 2829 ft 180 kts 65°
2026-05-06 23:38 -37.05835 174.61796 2568 ft 178 kts 65°
2026-05-06 23:38 -37.05454 174.63170 2335 ft 174 kts 65°
2026-05-06 23:38 -37.05064 174.64599 2089 ft 173 kts 65°
2026-05-06 23:39 -37.04681 174.65999 1852 ft 169 kts 65°
2026-05-06 23:39 -37.04322 174.67309 1612 ft 157 kts 65°
2026-05-06 23:39 -37.03978 174.68546 1415 ft 145 kts 65°
2026-05-06 23:39 -37.03662 174.69697 1230 ft 134 kts 64°
2026-05-06 23:40 -37.03370 174.70753 1055 ft 123 kts 66°
2026-05-06 23:40 -37.03096 174.71754 906 ft 121 kts 64°
2026-05-06 23:40 -37.02821 174.72749 754 ft 121 kts 64°
2026-05-06 23:40 -37.02549 174.73736 606 ft 120 kts 64°
2026-05-06 23:41 -37.02278 174.74719 461 ft 117 kts 66°
2026-05-06 23:41 -37.02035 174.75652 535 ft 124 kts 66°
2026-05-06 23:41 -37.01688 174.76844 905 ft 158 kts 65°
2026-05-06 23:41 -37.01313 174.78179 1337 ft 169 kts 66°
2026-05-06 23:42 -37.00926 174.79594 1975 ft 173 kts 66°
2026-05-06 23:42 -37.00531 174.81041 2577 ft 178 kts 65°
2026-05-06 23:42 -37.00103 174.82474 2914 ft 175 kts 59°
2026-05-06 23:42 -36.99382 174.83680 2998 ft 175 kts 40°
2026-05-06 23:43 -36.98386 174.84777 2984 ft 210 kts 37°
2026-05-06 23:43 -36.97141 174.85966 2968 ft 234 kts 28°
2026-05-06 23:43 -36.95560 174.86452 2987 ft 238 kts 359°
2026-05-06 23:43 -36.93980 174.85844 2991 ft 243 kts 330°
2026-05-06 23:44 -36.92833 174.84289 2995 ft 252 kts 302°
2026-05-06 23:44 -36.92372 174.82147 2991 ft 261 kts 278°
2026-05-06 23:44 -36.92549 174.79858 2992 ft 268 kts 263°
2026-05-06 23:44 -36.93078 174.77606 2989 ft 271 kts 256°
2026-05-06 23:45 -36.93691 174.75374 2988 ft 272 kts 255°
2026-05-06 23:45 -36.94304 174.73148 2994 ft 271 kts 255°
2026-05-06 23:45 -36.94919 174.70915 2992 ft 272 kts 255°
2026-05-06 23:45 -36.95532 174.68678 2995 ft 272 kts 255°
2026-05-06 23:46 -36.96235 174.66471 3007 ft 274 kts 251°
2026-05-06 23:46 -36.96994 174.64281 2998 ft 275 kts 250°
2026-05-06 23:46 -36.97745 174.62122 2997 ft 274 kts 250°
2026-05-06 23:46 -36.98513 174.59908 2993 ft 274 kts 249°
2026-05-06 23:47 -36.99266 174.57705 3003 ft 275 kts 250°
2026-05-06 23:47 -37.00006 174.55548 2992 ft 274 kts 251°
2026-05-06 23:47 -37.00980 174.53489 2989 ft 278 kts 233°
2026-05-06 23:47 -37.02504 174.51999 2998 ft 282 kts 204°
2026-05-06 23:48 -37.04419 174.51641 3005 ft 281 kts 171°
2026-05-06 23:48 -37.06216 174.52413 2999 ft 264 kts 148°
2026-05-06 23:48 -37.07429 174.53903 3007 ft 233 kts 111°
2026-05-06 23:48 -37.07623 174.55751 3016 ft 207 kts 72°
2026-05-06 23:49 -37.07133 174.57405 3014 ft 199 kts 60°
2026-05-06 23:49 -37.06611 174.58953 2985 ft 186 kts 64°
2026-05-06 23:49 -37.06198 174.60466 2830 ft 180 kts 67°
2026-05-06 23:49 -37.05801 174.61935 2558 ft 178 kts 65°
2026-05-06 23:50 -37.05396 174.63391 2331 ft 176 kts 65°
2026-05-06 23:50 -37.04609 174.66265 1817 ft 171 kts 66°
2026-05-06 23:50 -37.04226 174.67650 1573 ft 164 kts 66°
2026-05-06 23:51 -37.03859 174.68977 1353 ft 158 kts 65°
2026-05-06 23:51 -37.03505 174.70261 1145 ft 154 kts 67°
2026-05-06 23:51 -37.03166 174.71494 945 ft 145 kts 68°
2026-05-06 23:51 -37.02853 174.72637 772 ft 132 kts 65°
2026-05-06 23:52 -37.02566 174.73678 620 ft 121 kts 63°
2026-05-06 23:52 -37.02295 174.74659 455 ft 119 kts 64°
2026-05-06 23:52 -37.02027 174.75634 294 ft 118 kts 65°
2026-05-06 23:52 -37.01764 174.76608 148 ft 119 kts 65°
2026-05-06 23:53 -37.01492 174.77585 37 ft 118 kts 69°
2026-05-06 23:53 -37.01276 174.78359 32 ft 64 kts 71°
2026-05-06 23:53 -37.01200 174.78640 32 ft 31 kts 70°
2026-05-06 23:53 -37.01120 174.78875 32 ft 30 kts 59°
2026-05-06 23:54 -37.01000 174.79030 32 ft 23 kts 42°
2026-05-06 23:54 -37.00983 174.79050 32 ft 0 kts 43°
2026-05-06 23:54 -37.00968 174.79067 32 ft 8 kts 43°
2026-05-06 23:55 -37.00919 174.79102 32 ft 3 kts 352°
2026-05-06 23:55 -37.00907 174.79082 31 ft 4 kts 300°
2026-05-06 23:55 -37.00907 174.79006 32 ft 13 kts 255°
2026-05-06 23:55 -37.00946 174.78864 32 ft 20 kts 251°
2026-05-06 23:56 -37.00994 174.78689 32 ft 23 kts 251°
2026-05-06 23:56 -37.01047 174.78493 32 ft 24 kts 257°
2026-05-06 23:56 -37.00956 174.78359 32 ft 21 kts 354°
2026-05-06 23:56 -37.00844 174.78372 32 ft 11 kts
2026-05-06 23:57 -37.00797 174.78352 32 ft 5 kts 301°
2026-05-06 23:57 -37.00774 174.78303 32 ft 8 kts 297°
2026-05-06 23:57 -37.00762 174.78274 32 ft 0 kts 298°